Location: Newark
(48.8667°N, 7.2667°E)
Time: 14:46:44
(UTC+00:00)

N. Korean satellite - Visible Passes

Search period start: 15 October 2019 00:00
Search period end: 25 October 2019 00:00
Orbit: 455 x 508 km, 97.2° (Epoch: 14 October)

Date Brightness Start Highest point End Pass type
(mag) Time Alt. Az. Time Alt. Az. Time Alt. Az.
15 Oct 10.0 17:35:09 10° SW 17:37:20 16° W 17:39:33 10° NW visible
16 Oct 8.9 04:56:08 10° NE 04:59:17 29° E 05:02:29 10° SSE visible
16 Oct 8.8 17:08:48 10° SSW 17:11:52 30° W 17:14:58 10° NNW visible
17 Oct 10.0 04:31:34 10° NE 04:33:49 16° E 04:36:06 10° SE visible
18 Oct 10.6 17:54:40 10° W 17:55:01 10° W 17:55:21 10° W visible
19 Oct 7.9 05:13:23 10° NNE 05:16:52 46° E 05:20:23 10° S visible
19 Oct 9.7 17:26:55 10° SW 17:29:28 19° W 17:32:02 10° NW visible
20 Oct 9.3 04:48:27 10° NE 04:51:28 24° E 04:54:30 10° SSE visible
20 Oct 8.3 17:00:48 10° SSW 17:04:00 37° W 17:07:16 10° NNW visible
21 Oct 10.2 04:24:07 10° ENE 04:25:57 13° E 04:27:48 10° ESE visible
22 Oct 10.2 17:45:32 10° WSW 17:47:05 12° W 17:48:39 10° WNW visible
23 Oct 8.3 05:05:36 10° NNE 05:09:02 38° E 05:12:29 10° SSE visible
23 Oct 9.3 17:18:44 10° SSW 17:21:33 23° W 17:24:25 10° NW visible
24 Oct 9.6 04:40:46 10° NE 04:43:35 21° E 04:46:24 10° SE visible
24 Oct 7.8 16:52:47 10° S 16:56:07 46° W 16:59:29 10° NNW visible
